Find Starlink 31395

NORAD ID: 59180 Int'l Des: 2024-045 Owner: SPXS Country: US Constellation: starlink operational
LEOCIRCULAR

当前视图

正在加载3D地球...

About Starlink 31395

Starlink 31395 (NORAD 59180) is a starlink constellation satellite (v2 mini) launched Mar 11, 2024 by SPXS of US. It operates in LEO, CIRCULAR orbit with a mass of 730.00 kg.

即将过境

Passes for default location (London). Set your location on the main map for personalized predictions.

高度历史

Loading altitude history...

两行轨道根数

1 59180U 24045C 26237.95670839 .00000459 00000-0 26209-4 0 9996
2 59180 43.0012 217.0392 0001211 274.7253 85.3461 15.27576509139045
Epoch: Aug 25, 2026 • Age: 19 hours

当前状态

高度 486.3 km
远地点 / 近地点 N/A
速度 7.63 km/s
星下点 39.97°N, 80.05°E
发射日期 Mar 11, 2024
运行时间 2.4 years
类型 internet

技术详情

分类 Payload
质量 730.00 kg
干质量 700.00 kg
总质量 730.00 kg
长度 0.30 m
直径 4.10 m
跨度 29.00 m
形状 Box + pan
制造商 SPXS
平台类型 Starlink V2M
阶段状态 In Orbit
所有者/国家 SPXS/US

Most Searched